DELTA 1 DEB, 40761

Orbit data source: Space-Track

DELTA 1 DEB, 40761 is space debris in SSO originally from a launch on Thu, 29 Jul 1976 UTC launched from the Air Force Western Test Range (AFWTR). Debris objects in space refer to the collection of defunct objects orbiting the Earth. Examples of debris include non-operational satellites, rocket bodies, and fragments generated from explosions, collisions, or faulty payload assembly.

Loading next visibility...
Identifier
40761, 1976-077GE
Orbit
SSO
Country
Flag of USUS
Related business
Manufacturer
Unknown
Mission
Spacecraft
Bus & Motor
Unknown
Mass
Unknown
Launch date (UTC)
1976-07-29 (50 years ago)
Launch vehicle
Unknown
Launch site
Air Force Western Test Range (AFWTR)
Object type
Payload
Rocket body
Debris
Shape & HBR
Unknown shape, 0.1 m
Radar Cross Section
Medium (>0.1 m² and <1 m²)

Expand to show TLE details & history
Last TLE update: 4 days ago

TLE from 4 days ago
0 DELTA 1 DEB
1 40761U 76077GE  26252.23256678  .00000024  00000-0  70010-3 0  9998
2 40761 102.4912 175.3535 0171649 209.1638 149.9735 12.11118310356309
Epoch: 2026-09-09T05:34Z
TLE epoch observation values (Epoch: 2026-09-09T05:34:53.769Z)
Latitude
-0.00002°
Longitude
103.34189°
Altitude
1,753.581 km
Speed
6.95 km/s
True Right ascension
11h 41m 24s
True Declination
0° 00' 00"
Sunlit
Object was in daylight at epoch
Visualization orbit readout
Latitude
Unknown
Longitude
Unknown
Altitude
Unknown
Speed
Unknown
Apparent Right ascension
Unknown
Apparent Declination
Unknown
Sunlit
N/A
Visualization observer readout
Local Sidereal Time
02:29:14
Azimuth
Unknown
Elevation
Unknown
Doppler factor
Unknown
Orbital elements
Apogee altitude
1,766.547 km
Perigee altitude
1,491.66 km
Semi-major axis
8,007.24 km
Eccentricity
0.01716
Inclination
102.4912°
RAAN
175.3535°
Arg. of periapsis
209.1638°
True anomaly
150.93975°
Mean anomaly
149.9735°
Eccentric anomaly
150.45841°
Mean motion
3.02914 °/min
Orbital period
118.85 mins
BSTAR
0.0007001
Loading maneuver chart data...
Computing Atmospheric mass density...
Loading historical data...
Loading historical data...
Loading historical data...
Loading historical data...
Loading historical data...
Loading historical data...
Loading historical data...

Documentation

Showing up to 5 results
|